This is the latest recevied weather packets stored in our database for station/object VU3ZAG-WX. If no packets are shown the sender has not sent any weather packets the latest 10 day(s).
| Time | Temp. | Humidity | Pressure | Rain* | Wind** | Luminosity | Snow |
|---|---|---|---|---|---|---|---|
| 1777702803 | 38.33° C | 52% | 1010.1 hPa | - | - | - | - |
| 1777702196 | 38.89° C | 50% | 1010.2 hPa | - | - | - | - |
| 1777701590 | 38.89° C | 48% | 1010.2 hPa | - | - | - | - |
| 1777700985 | 38.89° C | 49% | 1010.2 hPa | - | - | - | - |
| 1777700379 | 38.89° C | 47% | 1010.3 hPa | - | - | - | - |
| 1777699773 | 38.33° C | 48% | 1010.3 hPa | - | - | - | - |
| 1777699167 | 38.33° C | 50% | 1010.3 hPa | - | - | - | - |
| 1777698561 | 38.33° C | 49% | 1010.4 hPa | - | - | - | - |
| 1777697955 | 38.33° C | 48% | 1010.4 hPa | - | - | - | - |
| 1777697348 | 37.78° C | 48% | 1010.4 hPa | - | - | - | - |
| 1777696743 | 37.22° C | 50% | 1010.4 hPa | - | - | - | - |
| 1777696137 | 37.22° C | 51% | 1010.4 hPa | - | - | - | - |
| 1777695532 | 37.22° C | 49% | 1010.4 hPa | - | - | - | - |
| 1777694926 | 36.67° C | 51% | 1010.4 hPa | - | - | - | - |
| 1777694321 | 36.67° C | 51% | 1010.4 hPa | - | - | - | - |
| 1777693715 | 36.11° C | 52% | 1010.3 hPa | - | - | - | - |
| 1777693109 | 35.56° C | 50% | 1010.3 hPa | - | - | - | - |
| 1777692504 | 35.56° C | 52% | 1010.2 hPa | - | - | - | - |
| 1777691898 | 35° C | 52% | 1010.1 hPa | - | - | - | - |
| 1777691291 | 33.89° C | 55% | 1010 hPa | - | - | - | - |
| 1777690685 | 33.89° C | 57% | 1009.9 hPa | - | - | - | - |
| 1777690080 | 33.33° C | 59% | 1009.8 hPa | - | - | - | - |
| 1777689474 | 33.33° C | 60% | 1009.6 hPa | - | - | - | - |
| 1777688867 | 33.89° C | 58% | 1009.5 hPa | - | - | - | - |
| 1777688261 | 33.89° C | 58% | 1009.3 hPa | - | - | - | - |
* Rain since midnight (hover to see other rain measurements)
** Current wind speed in m/s (hover to see current wind gust speed)